Location: Braunsdorf
(50.7357°N, 11.9136°E)
Time: 09:29:04
(UTC+00:00)

Cosmos 2263 - Pass Details

Date: 17 February 2020
Orbit: 832 x 865 km, 70.9° (Epoch: 28 March)

Event Time Altitude Azimuth Distance (km) Brightness Sun altitude
Exits shadow 04:58:30 - 327° (NNW) 3,339 7.0 -13.8°
Reaches altitude 10° 05:00:45 10° 324° (NW) 2,492 6.3 -13.4°
Maximum altitude 05:06:20 57° 247° (WSW) 992 4.3 -12.6°
Drops below altitude 10° 05:11:50 10° 170° (S) 2,453 6.8 -11.7°
Sets 05:14:17 0° 167° (SSE) 3,379 7.6 -11.3°
